Location: Batang Balui
(2.7000°N, 113.7833°E)
Time: 03:58:29
(UTC+00:00)

CZ-4 R/B - Pass Details

Date: 08 February 2023
Orbit: 526 x 587 km, 97.7° (Epoch: 26 March)

Event Time Altitude Azimuth Distance (km) Brightness Sun altitude
Rises 12:52:54 0° 202° (SSW) 2,816 5.4 -33.0°
Reaches altitude 10° 12:56:01 10° 228° (SW) 1,911 4.7 -33.7°
Maximum altitude 12:58:09 14° 258° (WSW) 1,671 4.5 -34.2°
Drops below altitude 10° 13:00:16 10° 290° (WNW) 1,900 4.6 -34.7°
Sets 13:03:22 0° 316° (NW) 2,788 5.2 -35.5°
